• In Netherlands
  • List of Countries
  • For 7 days
  • Water Temperature
  • Satellite Maps
  • Weather Map
  • Weather Widgets
  • user-avatar
    Login

    Hourly Weather Kandi

    Today, 20 September, Wednesday

    Time Temperature Precipitation Wind Pressure Humidity
    00:00 +28°C° 0 mm 2 mps 737 mmHg 74%
    01:00 +28°C° 0.3 mm 2 mps 736 mmHg 79%
    02:00 +27°C° 0.3 mm 2 mps 736 mmHg 84%
    03:00 +26°C° 0.3 mm 2 mps 736 mmHg 88%
    04:00 +26°C° 0 mm 2 mps 736 mmHg 90%
    05:00 +26°C° 0 mm 2 mps 736 mmHg 91%
    06:00 +26°C° 0 mm 2 mps 736 mmHg 92%
    07:00 +27°C° 0 mm 2 mps 737 mmHg 85%
    08:00 +29°C° 0 mm 3 mps 737 mmHg 78%
    09:00 +31°C° 0 mm 3 mps 738 mmHg 71%
    10:00 +33°C° 0.2 mm 3 mps 738 mmHg 66%
    11:00 +35°C° 0.2 mm 3 mps 737 mmHg 60%
    12:00 +36°C° 0.2 mm 2 mps 737 mmHg 55%
    13:00 +35°C° 2.3 mm 2 mps 736 mmHg 60%
    14:00 +34°C° 2.3 mm 2 mps 736 mmHg 64%
    15:00 +34°C° 2.3 mm 2 mps 735 mmHg 69%
    16:00 +31°C° 0.5 mm 2 mps 735 mmHg 74%
    17:00 +30°C° 0.5 mm 2 mps 736 mmHg 80%
    18:00 +28°C° 0.5 mm 2 mps 736 mmHg 85%
    19:00 +28°C° 0.4 mm 2 mps 736 mmHg 87%
    20:00 +27°C° 0.4 mm 2 mps 737 mmHg 89%
    21:00 +27°C° 0.4 mm 1 mps 737 mmHg 90%
    22:00 +26°C° 0.1 mm 2 mps 737 mmHg 91%
    23:00 +26°C° 0.1 mm 2 mps 737 mmHg 91%

    Tomorrow, 21 September, Thursday

    Time Temperature Precipitation Wind Pressure Humidity
    00:00 +26°C° 0.1 mm 2 mps 737 mmHg 92%
    01:00 +26°C° 0 mm 2 mps 737 mmHg 92%
    02:00 +26°C° 0 mm 2 mps 737 mmHg 93%
    03:00 +26°C° 0 mm 1 mps 736 mmHg 93%
    04:00 +26°C° 0 mm 2 mps 736 mmHg 93%
    05:00 +26°C° 0 mm 2 mps 737 mmHg 94%
    06:00 +25°C° 0 mm 2 mps 737 mmHg 94%
    07:00 +27°C° 0 mm 2 mps 737 mmHg 86%
    08:00 +29°C° 0 mm 2 mps 738 mmHg 79%
    09:00 +30°C° 0 mm 3 mps 738 mmHg 72%
    10:00 +32°C° 0 mm 2 mps 738 mmHg 65%
    11:00 +35°C° 0 mm 2 mps 737 mmHg 57%
    12:00 +37°C° 0 mm 2 mps 737 mmHg 50%
    13:00 +36°C° 1.1 mm 2 mps 736 mmHg 55%
    14:00 +35°C° 1.1 mm 2 mps 735 mmHg 61%
    15:00 +34°C° 1.1 mm 2 mps 735 mmHg 66%
    16:00 +31°C° 1 mm 2 mps 735 mmHg 75%
    17:00 +29°C° 1 mm 2 mps 735 mmHg 83%
    18:00 +27°C° 1 mm 2 mps 736 mmHg 91%
    19:00 +27°C° 0 mm 2 mps 736 mmHg 90%
    20:00 +26°C° 0 mm 2 mps 737 mmHg 90%
    21:00 +26°C° 0 mm 2 mps 737 mmHg 90%
    22:00 +26°C° 0.1 mm 1 mps 737 mmHg 91%
    23:00 +26°C° 0.1 mm 1 mps 738 mmHg 92%

    Day after tomorrow, 22 September, Friday

    Time Temperature Precipitation Wind Pressure Humidity
    00:00 +24°C° 0.1 mm 0 mps 738 mmHg 92%
    01:00 +23°C° 0.6 mm 0 mps 737 mmHg 92%
    02:00 +23°C° 0.6 mm 0 mps 737 mmHg 93%
    03:00 +23°C° 0.6 mm 0 mps 736 mmHg 93%
    04:00 +25°C° 0 mm 1 mps 737 mmHg 93%
    05:00 +25°C° 0 mm 1 mps 737 mmHg 94%
    06:00 +25°C° 0 mm 1 mps 737 mmHg 94%
    07:00 +26°C° 0 mm 1 mps 738 mmHg 90%
    08:00 +27°C° 0 mm 1 mps 738 mmHg 87%
    09:00 +28°C° 0 mm 2 mps 739 mmHg 83%
    10:00 +29°C° 0 mm 2 mps 739 mmHg 75%
    11:00 +31°C° 0 mm 2 mps 738 mmHg 67%
    12:00 +33°C° 0 mm 3 mps 738 mmHg 59%
    13:00 +34°C° 0 mm 3 mps 737 mmHg 59%
    14:00 +34°C° 0 mm 2 mps 736 mmHg 59%
    15:00 +34°C° 0 mm 2 mps 736 mmHg 59%
    16:00 +31°C° 0.1 mm 2 mps 736 mmHg 65%
    17:00 +30°C° 0.1 mm 2 mps 736 mmHg 71%
    18:00 +29°C° 0.1 mm 1 mps 737 mmHg 77%
    19:00 +28°C° 0.5 mm 1 mps 737 mmHg 82%
    20:00 +27°C° 0.5 mm 2 mps 738 mmHg 87%
    21:00 +26°C° 0.5 mm 2 mps 739 mmHg 91%
    22:00 +26°C° 0.3 mm 2 mps 739 mmHg 93%
    23:00 +25°C° 0.3 mm 2 mps 739 mmHg 94%

    23 September, Saturday

    Time Temperature Precipitation Wind Pressure Humidity
    00:00 +25°C° 0.3 mm 2 mps 738 mmHg 95%
    01:00 +24°C° 0 mm 2 mps 738 mmHg 95%
    02:00 +24°C° 0 mm 1 mps 738 mmHg 95%
    03:00 +24°C° 0 mm 1 mps 737 mmHg 94%
    04:00 +24°C° 0 mm 1 mps 738 mmHg 94%
    05:00 +24°C° 0 mm 2 mps 738 mmHg 93%
    06:00 +24°C° 0 mm 2 mps 738 mmHg 93%
    07:00 +26°C° 0 mm 2 mps 738 mmHg 84%
    08:00 +28°C° 0 mm 2 mps 739 mmHg 75%
    09:00 +30°C° 0 mm 3 mps 739 mmHg 66%
    10:00 +33°C° 0 mm 3 mps 739 mmHg 59%
    11:00 +34°C° 0 mm 2 mps 738 mmHg 53%
    12:00 +36°C° 0 mm 2 mps 738 mmHg 46%
    13:00 +36°C° 0 mm 2 mps 737 mmHg 47%
    14:00 +35°C° 0 mm 1 mps 737 mmHg 47%
    15:00 +35°C° 0 mm 1 mps 736 mmHg 47%
    16:00 +34°C° 0 mm 1 mps 736 mmHg 52%
    17:00 +32°C° 0 mm 1 mps 737 mmHg 57%
    18:00 +31°C° 0 mm 1 mps 737 mmHg 61%
    19:00 +30°C° 0.1 mm 1 mps 737 mmHg 65%
    20:00 +29°C° 0.1 mm 1 mps 738 mmHg 69%
    21:00 +29°C° 0.1 mm 1 mps 738 mmHg 72%
    22:00 +28°C° 0.2 mm 1 mps 738 mmHg 77%
    23:00 +27°C° 0.2 mm 2 mps 738 mmHg 81%

    24 September, Sunday

    Time Temperature Precipitation Wind Pressure Humidity
    00:00 +26°C° 0.2 mm 2 mps 738 mmHg 85%
    01:00 +26°C° 0 mm 2 mps 737 mmHg 87%
    02:00 +26°C° 0 mm 2 mps 737 mmHg 88%
    03:00 +26°C° 0 mm 2 mps 736 mmHg 89%
    04:00 +25°C° 0 mm 2 mps 737 mmHg 90%
    05:00 +25°C° 0 mm 2 mps 737 mmHg 90%
    06:00 +25°C° 0 mm 2 mps 737 mmHg 91%
    07:00 +27°C° 0 mm 2 mps 737 mmHg 84%
    08:00 +29°C° 0 mm 3 mps 738 mmHg 77%
    09:00 +31°C° 0 mm 3 mps 738 mmHg 69%
    10:00 +34°C° 0 mm 2 mps 738 mmHg 63%
    11:00 +36°C° 0 mm 2 mps 737 mmHg 56%
    12:00 +37°C° 0 mm 1 mps 737 mmHg 49%
    13:00 +36°C° 0.4 mm 1 mps 736 mmHg 52%
    14:00 +35°C° 0.4 mm 1 mps 736 mmHg 55%
    15:00 +34°C° 0.4 mm 1 mps 735 mmHg 59%
    16:00 +33°C° 0 mm 1 mps 735 mmHg 63%
    17:00 +32°C° 0 mm 2 mps 735 mmHg 68%
    18:00 +30°C° 0 mm 2 mps 735 mmHg 73%
    19:00 +30°C° 0.2 mm 2 mps 736 mmHg 76%
    20:00 +29°C° 0.2 mm 2 mps 736 mmHg 80%
    21:00 +28°C° 0.2 mm 2 mps 737 mmHg 83%
    22:00 +28°C° 0.6 mm 2 mps 737 mmHg 85%
    23:00 +27°C° 0.6 mm 1 mps 736 mmHg 88%

    25 September, Monday

    Time Temperature Precipitation Wind Pressure Humidity
    00:00 +27°C° 0.6 mm 1 mps 736 mmHg 91%
    01:00 +26°C° 0 mm 1 mps 736 mmHg 91%
    02:00 +26°C° 0 mm 2 mps 736 mmHg 91%
    03:00 +26°C° 0 mm 2 mps 735 mmHg 92%
    04:00 +26°C° 0 mm 2 mps 736 mmHg 92%
    05:00 +26°C° 0 mm 2 mps 736 mmHg 92%
    06:00 +26°C° 0 mm 2 mps 736 mmHg 91%
    07:00 +27°C° 0 mm 2 mps 737 mmHg 86%
    08:00 +29°C° 0 mm 3 mps 737 mmHg 80%
    09:00 +30°C° 0 mm 3 mps 738 mmHg 75%
    10:00 +31°C° 0 mm 3 mps 737 mmHg 69%
    11:00 +33°C° 0 mm 3 mps 737 mmHg 64%
    12:00 +34°C° 0 mm 3 mps 737 mmHg 59%
    13:00 +34°C° 0 mm 3 mps 736 mmHg 60%
    14:00 +34°C° 0 mm 3 mps 736 mmHg 60%
    15:00 +32°C° 0 mm 2 mps 735 mmHg 61%
    16:00 +31°C° 0 mm 2 mps 735 mmHg 66%
    17:00 +30°C° 0 mm 2 mps 735 mmHg 71%
    18:00 +29°C° 0 mm 1 mps 735 mmHg 75%
    19:00 +28°C° 0 mm 1 mps 736 mmHg 77%
    20:00 +28°C° 0 mm 1 mps 736 mmHg 79%
    21:00 +27°C° 0 mm 1 mps 736 mmHg 81%
    22:00 +27°C° 0 mm 1 mps 736 mmHg 81%
    23:00 +27°C° 0 mm 1 mps 736 mmHg 82%
    Show more